Regional Weather Roundup
Issued by NWS Cleveland, OH

Home | Current Version | Previous Version | Text Only | Print | Product List | Glossary Off
Versions: 1 2 3 4 5 6 7 8 9 10 11 12 13 14 15 16 17 18 19 20 21 22 23 24 25 26 27 28 29 30 31 32 33 34 35 36 37 38 39 40 41 42 43 44 45 46 47 48 49 50

000
ASUS41 KCLE 012102
RWRCLE
OHIO REGIONAL WEATHER ROUNDUP
NATIONAL WEATHER SERVICE CLEVELAND, OH
500 PM EDT WED OCT 01 2014

NOTE: "FAIR" INDICATES FEW OR NO CLOUDS BELOW 12,000 FEET WITH NO
SIGNIFICANT WEATHER AND/OR OBSTRUCTIONS TO VISIBILITY.

OHZ001>008-015>018-024>027-034-035-043-044-012200-
   NORTHWEST OHIO

CITY           SKY/WX    TMP DP  RH WIND       PRES   REMARKS
DEFIANCE       SUNNY     68  48  48 SE6       30.00F
FINDLAY        SUNNY     69  49  48 E8        30.00F
TOLEDO EXPRESS SUNNY     68  50  52 CALM      30.00F
TOLEDO EXEC    SUNNY     68  54  60 NE8       30.01F
LIMA           SUNNY     70  50  49 NE6       30.00F
$$

OHZ009>014-019>023-028>033-038-089-012200-
   NORTHEAST OHIO

CITY           SKY/WX    TMP DP  RH WIND       PRES   REMARKS
CLE-HOPKINS    MOSUNNY   66  59  78 N9        30.03F
CLE-LAKEFRONT  MOSUNNY   68  60  75 NE9       30.01S
CUY CO. ARPT   PTSUNNY   70  63  78 N12       30.02S
LORAIN-ELYRIA  MOSUNNY   70  58  65 N6        30.02F
ASHTABULA      SUNNY     69  59  70 NE3       30.02S
AKRON-CANTON   PTSUNNY   66  55  67 S7        30.02F
WOOSTER        PTSUNNY   65  56  72 SW6       30.03S
MANSFIELD      MOSUNNY   67  54  63 SE7       30.02F
YOUNGSTOWN     MOSUNNY   67  56  67 SE3       30.02F
$$

OHZ042-051>053-060>062-070>072-077>081-012200-
  SOUTHWEST OHIO

CITY           SKY/WX    TMP DP  RH WIND       PRES   REMARKS
CINC-COVINGTON MOSUNNY   77  54  44 CALM      29.98F
CINC-LUNKEN    SUNNY     75  54  47 VRB3      29.98F
HAMILTON       SUNNY     72  52  49 NE3       30.00F
DAYTON         SUNNY     68  51  54 CALM      30.02F
WRIGHT-PAT AFB SUNNY     67  52  56 CALM      30.01F
DAYTON GENERAL SUNNY     66  52  60 NW3       30.00F
WILMINGTON     SUNNY     70  46  42 CALM      30.01S
$$

OHZ036-037-039>041-045>050-054>059-063>069-073>076-082>088-012200-
  CENTRAL AND SOUTHEAST OHIO

CITY           SKY/WX    TMP DP  RH WIND       PRES   REMARKS
COLUMBUS       MOSUNNY   69  48  47 CALM      30.00F
OSU AIRPORT    SUNNY     69  49  48 VRB3      30.00F
BOLTON FIELD   SUNNY     70  50  49 CALM      30.01F
RICKENBACK AFB NOT AVBL
NEWARK         SUNNY     65  52  62 MISG      30.02S
MARION         MOSUNNY   70  48  45 CALM      30.00F
LANCASTER      SUNNY     71  49  45 VRB3      30.00F
ZANESVILLE     SUNNY     68  51  54 NW7       30.01F
NEW PHILLY     MOSUNNY   67  56  67 N6        30.02S
$$



USA.gov is the U.S. government's official web portal to all federal, state and local government web resources and services.